Litchfield, MN

4:17 PM CDT on May 24, 2017 (GMT -0500)
Litchfield Municipal

Weather History for KLJF - March, 2013

Change the Weather History Date:

Thursday, March 21, 2013

  Actual Average Record
Temperature  
Mean Temperature 11 °F -  
Max Temperature 24 °F 40 °F 60 °F (2012)
Min Temperature -2 °F 22 °F -14 °F (1965)
Degree Days  
Heating Degree Days 54    
Moisture  
Dew Point 3 °F    
Average Humidity 70    
Maximum Humidity 92    
Minimum Humidity 46    
Precipitation  
Precipitation 0.00 in - - ()
Sea Level Pressure  
Sea Level Pressure 30.08 in    
Wind  
Wind Speed 3 mph (NW)    
Max Wind Speed 7 mph    
Max Gust Speed -    
Visibility 10 miles    
Events      
Averages and records for this station are not official NWS values.
T = Trace of Precipitation, MM = Missing Value Source: NWS Daily Summary

Daily Weather History Graph

Daily Weather History Graph

Search for Another Location

Airport or City:

Trip Planner

Search our weather history database for the weather conditions in past years. The results will help you decide how hot, cold, wet, or windy it might be!

Date:

Astronomy

Mar. 21, 2013 Rise Set
Actual Time 7:18 AM CDT 7:32 PM CDT
Civil Twilight 6:49 AM CDT 8:01 PM CDT
Nautical Twilight 6:14 AM CDT 8:36 PM CDT
Astronomical Twilight 5:39 AM CDT 9:11 PM CDT
Moon 1:50 PM CDT (3/21) 3:54 AM CDT (3/21)
Length of Visible Light 13h 12m
Length of Day
12h 13m
Waxing Gibbous, 69% of the Moon is Illuminated
Mar 21
Waxing Gibbous
Mar 27
Full
Apr 2
Last Quarter
Apr 10
New
Apr 18
First Quarter

Hourly Weather History & Observations

Time (CDT) Temp. Windchill Dew Point Humidity Pressure Visibility Wind Dir Wind Speed Gust Speed Precip Events Conditions
12:33 AM 6.8 °F -4.8 °F -0.4 °F 72% 30.12 in 10.0 mi NNW 6.9 mph - N/A   Clear
1:12 AM 6.8 °F -2.0 °F -2.2 °F 67% 30.11 in 10.0 mi NW 4.6 mph - N/A   Clear
1:33 AM 3.2 °F -6.2 °F -2.2 °F 78% 30.11 in 10.0 mi NNW 4.6 mph - N/A   Clear
1:53 AM 3.2 °F -4.2 °F -2.2 °F 78% 30.11 in 10.0 mi WNW 3.5 mph - N/A   Clear
2:12 AM 1.4 °F -9.9 °F -2.2 °F 85% 30.11 in 10.0 mi West 5.8 mph - N/A   Clear
2:33 AM 3.2 °F -7.8 °F -2.2 °F 78% 30.11 in 10.0 mi West 5.8 mph - N/A   Clear
2:53 AM 3.2 °F -4.2 °F -2.2 °F 78% 30.11 in 10.0 mi NW 3.5 mph - N/A   Clear
3:12 AM 3.2 °F -4.2 °F -2.2 °F 78% 30.10 in 10.0 mi NW 3.5 mph - N/A   Clear
3:33 AM 3.2 °F -4.2 °F -2.2 °F 78% 30.10 in 10.0 mi NNW 3.5 mph - N/A   Clear
3:52 AM 1.4 °F -6.2 °F -2.2 °F 85% 30.10 in 10.0 mi NNW 3.5 mph - N/A   Clear
4:13 AM 3.2 °F -4.2 °F -2.2 °F 78% 30.09 in 10.0 mi NW 3.5 mph - N/A   Clear
4:33 AM 1.4 °F - -4.0 °F 78% 30.09 in 10.0 mi Calm Calm - N/A   Clear
4:52 AM -0.4 °F - -4.0 °F 85% 30.08 in 10.0 mi Calm Calm - N/A   Clear
5:13 AM 1.4 °F -6.2 °F -4.0 °F 78% 30.08 in 10.0 mi NNW 3.5 mph - N/A   Clear
5:33 AM -0.4 °F - -4.0 °F 85% 30.08 in 10.0 mi Calm Calm - N/A   Clear
5:52 AM -2.2 °F - -5.8 °F 85% 30.08 in 10.0 mi Calm Calm - N/A   Clear
6:13 AM -2.2 °F - -4.0 °F 92% 30.09 in 10.0 mi Calm Calm - N/A   Clear
6:33 AM -0.4 °F - -2.2 °F 92% 30.09 in 10.0 mi Calm Calm - N/A   Clear
6:53 AM -0.4 °F -8.3 °F -4.0 °F 85% 30.09 in 10.0 mi NW 3.5 mph - N/A   Clear
7:13 AM -2.2 °F - -5.8 °F 85% 30.09 in 10.0 mi Calm Calm - N/A   Clear
7:33 AM -2.2 °F - -5.8 °F 85% 30.09 in 10.0 mi Calm Calm - N/A   Clear
7:52 AM -2.2 °F - -5.8 °F 85% 30.09 in 10.0 mi Calm Calm - N/A   Unknown
8:13 AM -0.4 °F - -5.8 °F 78% 30.09 in 10.0 mi Calm Calm - N/A   Clear
8:33 AM 1.4 °F - -2.2 °F 85% 30.10 in 10.0 mi Calm Calm - N/A   Clear
8:52 AM 3.2 °F - -0.4 °F 85% 30.10 in 10.0 mi Calm Calm - N/A   Clear
9:13 AM 3.2 °F - -2.2 °F 78% 30.10 in 10.0 mi Calm Calm - N/A   Clear
9:33 AM 6.8 °F - -0.4 °F 72% 30.10 in 10.0 mi Calm Calm - N/A   Clear
9:52 AM 8.6 °F - 1.4 °F 73% 30.10 in 10.0 mi Calm Calm - N/A   Clear
10:13 AM 8.6 °F - 1.4 °F 73% 30.10 in 10.0 mi Calm Calm - N/A   Clear
10:33 AM 10.4 °F - 1.4 °F 67% 30.09 in 10.0 mi Calm Calm - N/A   Clear
10:53 AM 12.2 °F - 3.2 °F 67% 30.09 in 10.0 mi Calm Calm - N/A   Clear
11:13 AM 15.8 °F - 5.0 °F 62% 30.09 in 10.0 mi Calm Calm - N/A   Clear
11:32 AM 17.6 °F - 5.0 °F 58% 30.09 in 10.0 mi Calm Calm - N/A   Clear
11:53 AM 15.8 °F - 5.0 °F 62% 30.08 in 10.0 mi Calm Calm - N/A   Clear
12:13 PM 19.4 °F - 6.8 °F 58% 30.08 in 10.0 mi Calm Calm - N/A   Clear
12:32 PM 19.4 °F - 5.0 °F 54% 30.08 in 10.0 mi Calm Calm - N/A   Clear
12:53 PM 19.4 °F - 6.8 °F 58% 30.08 in 10.0 mi Calm Calm - N/A   Clear
1:13 PM 19.4 °F - 6.8 °F 58% 30.08 in 10.0 mi Calm Calm - N/A   Clear
1:32 PM 21.2 °F - 5.0 °F 50% 30.08 in 10.0 mi Calm Calm - N/A   Clear
1:53 PM 19.4 °F - 6.8 °F 58% 30.07 in 10.0 mi Calm Calm - N/A   Clear
2:12 PM 21.2 °F - 6.8 °F 54% 30.06 in 10.0 mi Calm Calm - N/A   Clear
2:33 PM 21.2 °F - 6.8 °F 54% 30.06 in 10.0 mi Calm Calm - N/A   Clear
2:53 PM 21.2 °F 14.9 °F 6.8 °F 54% 30.05 in 10.0 mi ENE 4.6 mph - N/A   Clear
3:13 PM 21.2 °F 14.9 °F 8.6 °F 58% 30.05 in 10.0 mi NE 4.6 mph - N/A   Clear
3:33 PM 21.2 °F - 6.8 °F 54% 30.05 in 10.0 mi Calm Calm - N/A   Clear
3:52 PM 21.2 °F - 8.6 °F 58% 30.05 in 10.0 mi Calm Calm - N/A   Clear
4:13 PM 23.0 °F 18.4 °F 6.8 °F 50% 30.04 in 10.0 mi NNE 3.5 mph - N/A   Clear
4:32 PM 21.2 °F - 6.8 °F 54% 30.04 in 10.0 mi Calm Calm - N/A   Clear
4:53 PM 23.0 °F 17.0 °F 8.6 °F 54% 30.04 in 10.0 mi North 4.6 mph - N/A   Clear
5:13 PM 23.0 °F 17.0 °F 8.6 °F 54% 30.04 in 10.0 mi North 4.6 mph - N/A   Clear
5:32 PM 24.8 °F - 6.8 °F 46% 30.04 in 10.0 mi Calm Calm - N/A   Clear
5:53 PM 23.0 °F - 8.6 °F 54% 30.04 in 10.0 mi Calm Calm - N/A   Clear
6:13 PM 21.2 °F 16.4 °F 8.6 °F 58% 30.04 in 10.0 mi NNW 3.5 mph - N/A   Clear
6:32 PM 21.2 °F - 6.8 °F 54% 30.04 in 10.0 mi Calm Calm - N/A   Clear
6:53 PM 21.2 °F 14.9 °F 8.6 °F 58% 30.04 in 10.0 mi WNW 4.6 mph - N/A   Clear
7:13 PM 21.2 °F 16.4 °F 8.6 °F 58% 30.04 in 10.0 mi WNW 3.5 mph - N/A   Clear
7:32 PM 19.4 °F 14.3 °F 8.6 °F 63% 30.04 in 10.0 mi NW 3.5 mph - N/A   Clear
7:53 PM 17.6 °F - 8.6 °F 68% 30.05 in 10.0 mi Calm Calm - N/A   Clear
8:13 PM 17.6 °F - 8.6 °F 68% 30.05 in 10.0 mi Calm Calm - N/A   Clear
8:32 PM 17.6 °F - 8.6 °F 68% 30.05 in 10.0 mi Calm Calm - N/A   Clear
8:53 PM 12.2 °F - 6.8 °F 79% 30.06 in 10.0 mi Calm Calm - N/A   Clear
9:13 PM 15.8 °F - 6.8 °F 68% 30.06 in 10.0 mi Calm Calm - N/A   Clear
9:32 PM 12.2 °F 6.1 °F 6.8 °F 79% 30.06 in 10.0 mi West 3.5 mph - N/A   Clear
9:53 PM 10.4 °F 4.0 °F 5.0 °F 79% 30.07 in 10.0 mi West 3.5 mph - N/A   Clear
10:13 PM 12.2 °F 6.1 °F 5.0 °F 73% 30.07 in 10.0 mi WNW 3.5 mph - N/A   Clear
10:32 PM 10.4 °F - 3.2 °F 73% 30.07 in 10.0 mi Calm Calm - N/A   Clear
10:53 PM 10.4 °F - 3.2 °F 73% 30.07 in 10.0 mi Calm Calm - N/A   Unknown
11:13 PM 12.2 °F 6.1 °F 6.8 °F 79% 30.07 in 10.0 mi WNW 3.5 mph - N/A   Clear
11:32 PM 10.4 °F 4.0 °F 5.0 °F 79% 30.08 in 10.0 mi NW 3.5 mph - N/A   Clear
11:53 PM 8.6 °F 2.0 °F 3.2 °F 79% 30.08 in 10.0 mi West 3.5 mph - N/A   Clear